TimeEDT,TemperatureF,Dew PointF,Humidity,Sea Level PressureIn,VisibilityMPH,Wind Direction,Wind SpeedMPH,Gust SpeedMPH,PrecipitationIn,Events,Conditions,WindDirDegrees,DateUTC
12:53 AM,46.9,37.9,71,29.89,10.0,South,8.1,-,N/A,,Clear,190,2012-10-17 04:53:00
1:53 AM,48.0,37.0,66,29.90,10.0,South,11.5,-,N/A,,Clear,180,2012-10-17 05:53:00
2:53 AM,48.9,37.0,64,29.89,10.0,South,13.8,-,N/A,,Clear,190,2012-10-17 06:53:00
3:53 AM,48.9,37.0,64,29.88,10.0,South,13.8,-,N/A,,Clear,190,2012-10-17 07:53:00
4:53 AM,48.9,37.9,66,29.87,10.0,South,10.4,-,N/A,,Clear,190,2012-10-17 08:53:00
5:53 AM,50.0,37.9,63,29.87,10.0,SSW,11.5,-,N/A,,Clear,200,2012-10-17 09:53:00
6:53 AM,51.1,37.0,59,29.87,10.0,South,13.8,-,N/A,,Clear,180,2012-10-17 10:53:00
7:53 AM,53.1,37.0,55,29.87,10.0,South,13.8,-,N/A,,Scattered Clouds,180,2012-10-17 11:53:00
8:53 AM,53.1,37.9,57,29.88,10.0,South,13.8,23.0,N/A,,Partly Cloudy,180,2012-10-17 12:53:00
9:53 AM,55.9,39.0,53,29.88,10.0,South,15.0,-,N/A,,Partly Cloudy,180,2012-10-17 13:53:00
10:53 AM,59.0,39.0,48,29.88,10.0,South,16.1,-,N/A,,Scattered Clouds,190,2012-10-17 14:53:00
11:53 AM,61.0,39.9,46,29.85,10.0,South,13.8,-,N/A,,Clear,180,2012-10-17 15:53:00
12:53 PM,64.0,42.1,45,29.81,10.0,SSE,11.5,-,N/A,,Scattered Clouds,160,2012-10-17 16:53:00
1:53 PM,64.9,42.1,43,29.78,10.0,South,11.5,19.6,N/A,,Mostly Cloudy,180,2012-10-17 17:53:00
2:53 PM,68.0,43.0,40,29.78,10.0,Variable,4.6,-,0.00,,Clear,0,2012-10-17 18:53:00
3:53 PM,66.9,43.0,42,29.78,10.0,SSW,6.9,-,N/A,,Mostly Cloudy,210,2012-10-17 19:53:00
4:53 PM,69.1,44.1,40,29.78,10.0,SSW,11.5,-,N/A,,Clear,210,2012-10-17 20:53:00
5:53 PM,66.9,44.1,44,29.77,10.0,South,3.5,-,N/A,,Clear,190,2012-10-17 21:53:00
6:53 PM,64.9,43.0,45,29.77,10.0,Calm,Calm,-,N/A,,Clear,0,2012-10-17 22:53:00
7:53 PM,64.9,42.1,43,29.76,10.0,SSE,10.4,-,N/A,,Partly Cloudy,160,2012-10-17 23:53:00
8:53 PM,64.9,41.0,42,29.75,10.0,SSE,13.8,20.7,N/A,,Clear,160,2012-10-18 00:53:00
9:53 PM,63.0,37.9,40,29.75,10.0,SSE,15.0,21.9,N/A,,Clear,150,2012-10-18 01:53:00
10:53 PM,63.0,36.0,37,29.74,10.0,South,16.1,25.3,N/A,,Mostly Cloudy,170,2012-10-18 02:53:00
11:53 PM,61.0,36.0,39,29.74,10.0,South,15.0,26.5,N/A,,Clear,170,2012-10-18 03:53:00